contact:dominique.lefevre@mio.osupytheas.fr, maurice.libes@osupytheas.fr, didier.mallarino@osupytheas.fr
Project:EMSO http://www.emso-fr.org/EMSO-France
Depth: 2436.0 m
Title:EMSO Ligure Ouest : Data MII capteur AQUADOPP
Date,Latitude,Longitude,X_East,Y_North,Z_Up,Amplitude_X,Amplitude_Y,Amplitude_Z,Batterie,SoundSpeed,Heading,Pitch,Roll,Pressure,TIS,Speed,Direction
, degrees North, degrees East, m.s-1, m.s-1,m.s-1, 1, 1, 1, Volt, m.s-1, degree, degree, degree, dbar, degree_C, m.s-1, degree
2022-04-30T00:04:03,42.805,6.029,0.02,0.0,-0.02,102.0,104.0,99.0,13.4,1505.2,325.2,-0.8,1.8,2470.679,13.28,0.02,90.0
2022-04-30T00:07:03,42.805,6.029,-0.013,0.032,0.007,102.0,103.0,101.0,13.4,1505.2,323.7,-0.8,1.8,2470.693,13.28,0.034,337.9
2022-04-30T00:10:03,42.805,6.029,0.035,-0.011,0.008,102.0,102.0,100.0,13.4,1505.2,332.6,-0.7,1.8,2470.675,13.28,0.036,107.4
2022-04-30T00:13:03,42.805,6.029,0.036,0.008,0.007,102.0,102.0,101.0,13.3,1505.2,322.7,-0.7,1.8,2470.672,13.28,0.036,77.5
2022-04-30T00:16:03,42.805,6.029,0.022,-0.042,-0.013,102.0,103.0,100.0,13.4,1505.2,332.1,-0.7,1.8,2470.657,13.28,0.047,152.4
2022-04-30T00:19:03,42.805,6.029,0.032,0.017,0.0,102.0,103.0,100.0,13.4,1505.2,328.6,-0.7,1.8,2470.671,13.28,0.036,62.0
2022-04-30T00:22:03,42.805,6.029,0.037,0.006,0.018,101.0,104.0,100.0,13.4,1505.2,333.4,-0.8,1.8,2470.663,13.28,0.037,80.8
2022-04-30T00:25:03,42.805,6.029,0.032,-0.002,0.011,100.0,103.0,100.0,13.4,1505.2,325.7,-0.8,1.8,2470.672,13.28,0.032,93.6
2022-04-30T00:28:03,42.805,6.029,0.03,-0.015,-0.021,101.0,103.0,100.0,13.3,1505.2,324.4,-0.8,1.8,2470.647,13.28,0.033,116.6
2022-04-30T00:31:03,42.805,6.029,0.041,-0.004,-0.014,101.0,104.0,101.0,13.4,1505.2,324.0,-0.8,1.8,2470.654,13.28,0.041,95.6
2022-04-30T00:34:03,42.805,6.029,0.02,-0.012,0.018,102.0,104.0,100.0,13.4,1505.2,327.3,-0.8,1.8,2470.635,13.28,0.023,121.0
2022-04-30T00:37:03,42.805,6.029,0.007,0.001,-0.02,102.0,103.0,101.0,13.4,1505.2,329.4,-0.7,1.8,2470.618,13.28,0.007,81.9
2022-04-30T00:40:03,42.805,6.029,0.035,-0.002,-0.012,100.0,102.0,102.0,13.4,1505.2,326.4,-0.8,1.8,2470.614,13.28,0.035,93.3
2022-04-30T00:43:03,42.805,6.029,0.051,-0.001,0.009,101.0,102.0,101.0,13.4,1505.2,321.8,-0.8,1.8,2470.631,13.28,0.051,91.1
2022-04-30T00:46:03,42.805,6.029,0.032,-0.016,0.012,102.0,103.0,100.0,13.3,1505.2,326.7,-0.8,1.8,2470.619,13.28,0.035,116.6
2022-04-30T00:49:03,42.805,6.029,0.022,0.007,-0.031,102.0,103.0,100.0,13.4,1505.2,330.5,-0.7,1.9,2470.62,13.28,0.023,72.4
2022-04-30T00:52:03,42.805,6.029,0.036,0.0,0.002,102.0,102.0,100.0,13.3,1505.2,329.7,-0.8,1.9,2470.682,13.28,0.036,90.0
2022-04-30T00:55:03,42.805,6.029,0.037,-0.002,-0.01,103.0,103.0,100.0,13.4,1505.2,327.2,-0.8,1.8,2470.622,13.28,0.037,93.1
2022-04-30T00:58:03,42.805,6.029,0.026,0.011,0.0,102.0,103.0,100.0,13.4,1505.2,321.5,-0.7,1.8,2470.641,13.28,0.028,67.1
2022-04-30T01:04:03,42.805,6.029,0.013,0.013,0.019,101.0,103.0,101.0,13.3,1505.2,331.2,-0.8,1.8,2470.687,13.28,0.018,45.0
2022-04-30T01:07:03,42.805,6.029,0.033,0.011,0.006,104.0,102.0,100.0,13.4,1505.2,321.6,-0.8,1.8,2470.64,13.28,0.034,71.6
2022-04-30T01:10:03,42.805,6.029,0.03,-0.007,-0.032,101.0,105.0,100.0,13.4,1505.2,329.4,-0.8,1.8,2470.663,13.28,0.03,103.1
2022-04-30T01:13:03,42.805,6.029,0.037,0.011,0.006,102.0,103.0,100.0,13.4,1505.2,329.4,-0.8,1.8,2470.631,13.28,0.038,73.4
2022-04-30T01:16:03,42.805,6.029,0.049,-0.016,0.01,101.0,102.0,101.0,13.3,1505.2,329.4,-0.8,1.8,2470.606,13.28,0.051,108.1
2022-04-30T01:19:03,42.805,6.029,0.002,0.007,0.008,102.0,103.0,100.0,13.3,1505.2,328.0,-0.8,1.8,2470.593,13.28,0.007,15.9
2022-04-30T01:22:03,42.805,6.029,0.042,-0.006,-0.012,101.0,101.0,101.0,13.4,1505.2,328.9,-0.8,1.8,2470.584,13.28,0.042,98.1
2022-04-30T01:25:03,42.805,6.029,0.041,0.005,0.016,102.0,103.0,99.0,13.3,1505.2,323.0,-0.8,1.8,2470.604,13.28,0.041,83.0
2022-04-30T01:28:03,42.805,6.029,0.032,-0.009,0.017,101.0,102.0,101.0,13.3,1505.2,327.7,-0.8,1.8,2470.504,13.28,0.033,105.7
2022-04-30T01:31:03,42.805,6.029,0.042,0.0,0.001,101.0,103.0,100.0,13.4,1505.2,331.0,-0.7,1.8,2470.565,13.28,0.042,90.0
2022-04-30T01:34:03,42.805,6.029,0.042,0.013,0.019,102.0,106.0,100.0,13.4,1505.2,329.0,-0.8,1.8,2470.53,13.28,0.043,72.8
2022-04-30T01:37:03,42.805,6.029,0.053,0.011,-0.022,102.0,103.0,100.0,13.4,1505.2,331.2,-0.7,1.8,2470.547,13.28,0.054,78.3
2022-04-30T01:40:03,42.805,6.029,0.017,0.005,-0.001,102.0,102.0,101.0,13.4,1505.2,324.7,-0.7,1.8,2470.484,13.28,0.017,73.6
2022-04-30T01:43:03,42.805,6.029,-0.002,0.009,-0.005,100.0,103.0,101.0,13.4,1505.2,328.9,-0.8,1.8,2470.551,13.28,0.009,347.5
2022-04-30T01:46:03,42.805,6.029,0.03,0.019,0.001,101.0,103.0,100.0,13.4,1505.2,322.8,-0.8,1.8,2470.558,13.28,0.035,57.7
2022-04-30T01:49:03,42.805,6.029,0.037,0.011,0.023,101.0,103.0,100.0,13.3,1505.2,328.5,-0.8,1.8,2470.557,13.28,0.038,73.4
2022-04-30T01:52:03,42.805,6.029,0.025,-0.013,-0.039,101.0,102.0,100.0,13.4,1505.2,329.1,-0.8,1.8,2470.576,13.28,0.028,117.5
2022-04-30T01:55:03,42.805,6.029,0.04,-0.01,0.002,100.0,102.0,101.0,13.3,1505.2,323.1,-0.7,1.8,2470.593,13.28,0.041,104.0
2022-04-30T01:58:03,42.805,6.029,0.01,0.024,0.039,101.0,103.0,100.0,13.4,1505.2,331.1,-0.8,1.8,2470.618,13.28,0.026,22.6
2022-04-30T02:04:03,42.805,6.029,0.014,0.007,-0.013,101.0,103.0,99.0,13.3,1505.2,325.1,-0.8,1.8,2470.67,13.28,0.015,63.4
2022-04-30T02:07:03,42.805,6.029,0.034,-0.006,-0.002,101.0,104.0,101.0,13.3,1505.2,322.4,-0.7,1.8,2470.664,13.28,0.034,100.0
2022-04-30T02:10:03,42.805,6.029,0.022,0.0,-0.004,99.0,105.0,101.0,13.3,1505.2,330.1,-0.8,1.8,2470.697,13.28,0.022,90.0
2022-04-30T02:13:03,42.805,6.029,0.024,-0.013,0.0,101.0,103.0,102.0,13.4,1505.2,330.1,-0.7,1.8,2470.69,13.28,0.027,118.4
2022-04-30T02:16:03,42.805,6.029,0.05,0.0,0.008,101.0,103.0,100.0,13.4,1505.2,331.5,-0.7,1.8,2470.729,13.28,0.05,90.0
2022-04-30T02:19:03,42.805,6.029,0.074,-0.003,0.033,101.0,103.0,100.0,13.4,1505.2,326.8,-0.8,1.8,2470.682,13.28,0.074,92.3
2022-04-30T02:22:03,42.805,6.029,0.027,0.027,0.022,101.0,103.0,101.0,13.3,1505.2,331.1,-0.8,1.8,2470.7,13.28,0.038,45.0
2022-04-30T02:25:03,42.805,6.029,0.029,0.0,0.021,101.0,103.0,100.0,13.4,1505.2,324.6,-0.8,1.8,2470.726,13.28,0.028,90.0
2022-04-30T02:28:03,42.805,6.029,0.033,0.029,0.012,101.0,103.0,100.0,13.4,1505.2,322.8,-0.8,1.8,2470.71,13.28,0.043,48.7
2022-04-30T02:31:03,42.805,6.029,0.044,0.016,0.012,100.0,103.0,100.0,13.3,1505.2,326.8,-0.8,1.8,2470.744,13.28,0.046,70.0
2022-04-30T02:34:02,42.805,6.029,0.02,0.002,-0.011,102.0,103.0,100.0,13.4,1505.2,328.4,-0.8,1.8,2470.754,13.28,0.02,84.3
2022-04-30T02:37:03,42.805,6.029,0.046,-0.014,0.026,100.0,103.0,100.0,13.4,1505.2,331.1,-0.8,1.8,2470.755,13.28,0.048,106.9
2022-04-30T02:40:02,42.805,6.029,0.032,0.007,-0.018,102.0,103.0,100.0,13.4,1505.2,331.5,-0.8,1.8,2470.725,13.28,0.032,77.7
2022-04-30T02:43:02,42.805,6.029,0.03,-0.007,-0.033,103.0,104.0,99.0,13.4,1505.2,327.1,-0.7,1.8,2470.744,13.28,0.03,103.1
2022-04-30T02:46:02,42.805,6.029,0.032,0.004,0.023,102.0,103.0,101.0,13.3,1505.2,329.4,-0.8,1.8,2470.761,13.28,0.032,82.9
2022-04-30T02:49:02,42.805,6.029,0.042,0.028,0.038,101.0,105.0,100.0,13.4,1505.2,321.1,-0.8,1.8,2470.724,13.28,0.05,56.3
2022-04-30T02:52:02,42.805,6.029,0.029,0.0,0.018,101.0,104.0,100.0,13.4,1505.2,327.9,-0.7,1.8,2470.776,13.28,0.028,90.0
2022-04-30T02:55:02,42.805,6.029,0.027,0.019,0.012,100.0,105.0,100.0,13.4,1505.2,325.4,-0.8,1.8,2470.767,13.28,0.033,54.9
2022-04-30T02:58:03,42.805,6.029,0.028,-0.004,-0.036,100.0,103.0,100.0,13.3,1505.2,329.4,-0.7,1.8,2470.742,13.28,0.028,98.1
2022-04-30T03:04:02,42.805,6.029,0.038,0.003,-0.02,101.0,102.0,102.0,13.4,1505.2,328.6,-0.7,1.8,2470.747,13.28,0.038,85.5
2022-04-30T03:07:02,42.805,6.029,0.021,-0.011,-0.031,101.0,103.0,100.0,13.4,1505.2,325.9,-0.8,1.8,2470.754,13.28,0.023,117.6
2022-04-30T03:10:02,42.805,6.029,0.024,0.009,0.014,102.0,105.0,100.0,13.4,1505.2,331.5,-0.8,1.8,2470.702,13.28,0.025,69.4
2022-04-30T03:13:02,42.805,6.029,0.03,0.006,0.015,101.0,103.0,101.0,13.4,1505.2,326.9,-0.7,1.8,2470.681,13.28,0.03,78.7
2022-04-30T03:16:02,42.805,6.029,0.032,0.001,0.0,101.0,103.0,99.0,13.4,1505.2,325.1,-0.8,1.8,2470.68,13.28,0.032,88.2
2022-04-30T03:19:02,42.805,6.029,0.041,-0.011,0.002,101.0,104.0,100.0,13.4,1505.2,322.3,-0.8,1.8,2470.68,13.28,0.042,105.0
2022-04-30T03:22:02,42.805,6.029,0.022,0.016,0.011,101.0,103.0,100.0,13.4,1505.2,328.7,-0.8,1.9,2470.702,13.28,0.027,54.0
2022-04-30T03:25:02,42.805,6.029,0.05,-0.007,0.004,100.0,104.0,100.0,13.3,1505.2,323.6,-0.8,1.9,2470.711,13.28,0.05,98.0
2022-04-30T03:28:02,42.805,6.029,0.035,-0.02,-0.036,101.0,104.0,101.0,13.4,1505.2,323.7,-0.7,1.8,2470.705,13.28,0.04,119.7
2022-04-30T03:31:02,42.805,6.029,0.013,0.003,-0.004,101.0,103.0,101.0,13.4,1505.2,331.8,-0.8,1.8,2470.69,13.28,0.013,77.0
2022-04-30T03:34:02,42.805,6.029,0.035,-0.005,0.004,100.0,104.0,101.0,13.4,1505.2,331.9,-0.7,1.8,2470.646,13.28,0.035,98.1
2022-04-30T03:37:02,42.805,6.029,0.025,0.005,-0.008,103.0,102.0,99.0,13.4,1505.2,328.3,-0.7,1.8,2470.686,13.28,0.025,78.7
2022-04-30T03:40:02,42.805,6.029,0.031,-0.009,0.009,101.0,104.0,101.0,13.3,1505.2,328.0,-0.8,1.8,2470.667,13.28,0.032,106.2
2022-04-30T03:43:02,42.805,6.029,0.045,0.014,0.03,102.0,105.0,101.0,13.4,1505.2,322.7,-0.8,1.8,2470.711,13.28,0.047,72.7
2022-04-30T03:46:02,42.805,6.029,0.048,0.007,0.009,101.0,104.0,100.0,13.4,1505.2,323.7,-0.7,1.8,2470.753,13.28,0.048,81.7
2022-04-30T03:49:02,42.805,6.029,0.026,0.014,0.037,100.0,104.0,101.0,13.3,1505.2,331.3,-0.8,1.8,2470.766,13.28,0.029,61.7
2022-04-30T03:52:02,42.805,6.029,0.037,0.024,0.009,100.0,105.0,100.0,13.3,1505.2,322.3,-0.8,1.8,2470.763,13.28,0.044,57.0
2022-04-30T03:55:03,42.805,6.029,-0.012,0.014,0.008,101.0,104.0,100.0,13.3,1505.2,327.9,-0.7,1.9,2470.744,13.28,0.018,319.4
2022-04-30T03:58:02,42.805,6.029,0.036,0.019,0.003,102.0,103.0,101.0,13.3,1505.2,331.4,-0.7,1.8,2470.752,13.28,0.04,62.2
2022-04-30T04:04:02,42.805,6.029,0.027,-0.001,-0.001,101.0,103.0,99.0,13.4,1505.2,328.3,-0.8,1.8,2470.819,13.28,0.027,92.1
2022-04-30T04:07:02,42.805,6.029,0.021,0.017,0.035,102.0,103.0,99.0,13.3,1505.2,332.1,-0.7,1.8,2470.785,13.28,0.027,51.0
2022-04-30T04:10:03,42.805,6.029,0.068,0.017,0.033,103.0,101.0,100.0,13.4,1505.2,322.6,-0.8,1.8,2470.761,13.28,0.07,76.0
2022-04-30T04:13:03,42.805,6.029,0.027,-0.023,-0.016,100.0,103.0,100.0,13.4,1505.2,323.7,-0.8,1.8,2470.826,13.28,0.035,130.4
2022-04-30T04:16:02,42.805,6.029,0.017,-0.009,-0.021,101.0,103.0,101.0,13.3,1505.2,330.1,-0.7,1.8,2470.774,13.28,0.019,117.9
2022-04-30T04:19:03,42.805,6.029,0.043,0.001,0.011,101.0,104.0,100.0,13.4,1505.2,329.7,-0.8,1.8,2470.784,13.28,0.043,88.7
2022-04-30T04:22:02,42.805,6.029,0.018,0.016,0.003,101.0,104.0,100.0,13.4,1505.2,322.0,-0.8,1.8,2470.845,13.28,0.024,48.4
2022-04-30T04:25:02,42.805,6.029,0.046,-0.013,0.03,101.0,104.0,100.0,13.4,1505.2,332.4,-0.7,1.8,2470.822,13.28,0.047,105.8
2022-04-30T04:28:03,42.805,6.029,0.034,-0.001,0.021,101.0,105.0,100.0,13.3,1505.2,328.0,-0.7,1.8,2470.847,13.28,0.034,91.7
2022-04-30T04:31:03,42.805,6.029,0.037,0.012,0.006,101.0,105.0,100.0,13.4,1505.2,325.4,-0.7,1.8,2470.832,13.28,0.038,72.0
2022-04-30T04:34:03,42.805,6.029,0.034,0.007,0.033,101.0,102.0,100.0,13.4,1505.2,331.7,-0.7,1.8,2470.848,13.28,0.034,78.4
2022-04-30T04:37:02,42.805,6.029,0.038,0.009,0.03,101.0,105.0,100.0,13.4,1505.2,323.1,-0.8,1.8,2470.806,13.28,0.039,76.7
2022-04-30T04:40:03,42.805,6.029,0.031,-0.009,-0.021,102.0,104.0,100.0,13.3,1505.2,322.1,-0.7,1.8,2470.731,13.28,0.032,106.2
2022-04-30T04:43:02,42.805,6.029,0.054,0.006,0.032,101.0,104.0,101.0,13.4,1505.2,322.3,-0.7,1.8,2470.774,13.28,0.054,83.7
2022-04-30T04:46:03,42.805,6.029,0.002,0.006,-0.003,101.0,104.0,100.0,13.3,1505.2,331.4,-0.8,1.8,2470.746,13.28,0.006,18.4
2022-04-30T04:49:03,42.805,6.029,0.054,0.011,0.029,101.0,105.0,100.0,13.4,1505.2,327.7,-0.7,1.8,2470.744,13.28,0.055,78.5
2022-04-30T04:52:02,42.805,6.029,0.022,0.018,0.012,100.0,104.0,100.0,13.4,1505.2,327.6,-0.7,1.8,2470.749,13.28,0.028,50.7
2022-04-30T04:55:03,42.805,6.029,0.044,-0.004,0.004,102.0,104.0,100.0,13.3,1505.2,328.7,-0.8,1.8,2470.752,13.28,0.044,95.2
2022-04-30T04:58:02,42.805,6.029,0.048,0.007,0.018,101.0,104.0,100.0,13.3,1505.2,323.1,-0.8,1.8,2470.729,13.28,0.048,81.7
2022-04-30T05:04:02,42.805,6.029,0.038,0.032,0.011,101.0,103.0,100.0,13.4,1505.2,333.2,-0.7,1.8,2470.769,13.28,0.049,49.9
2022-04-30T05:07:02,42.805,6.029,0.05,-0.002,0.015,101.0,104.0,100.0,13.4,1505.2,330.6,-0.7,1.8,2470.79,13.28,0.05,92.3
2022-04-30T05:10:02,42.805,6.029,0.05,0.002,0.036,100.0,104.0,101.0,13.4,1505.2,326.7,-0.7,1.8,2470.783,13.28,0.05,87.7
2022-04-30T05:13:02,42.805,6.029,0.04,-0.004,0.004,100.0,105.0,101.0,13.4,1505.2,328.4,-0.8,1.8,2470.799,13.28,0.04,95.7
2022-04-30T05:16:02,42.805,6.029,0.031,0.001,0.001,101.0,106.0,100.0,13.3,1505.2,325.3,-0.8,1.8,2470.835,13.28,0.031,88.2
2022-04-30T05:19:02,42.805,6.029,0.031,0.014,-0.017,102.0,106.0,100.0,13.3,1505.2,324.3,-0.7,1.8,2470.792,13.28,0.034,65.7
2022-04-30T05:22:02,42.805,6.029,0.027,0.002,0.019,102.0,104.0,101.0,13.4,1505.2,331.9,-0.8,1.8,2470.836,13.28,0.027,85.8
2022-04-30T05:25:02,42.805,6.029,0.022,0.009,0.029,100.0,103.0,100.0,13.4,1505.2,331.1,-0.7,1.8,2470.865,13.28,0.023,67.8
2022-04-30T05:28:02,42.805,6.029,0.044,0.021,0.015,102.0,106.0,101.0,13.4,1505.2,332.0,-0.7,1.8,2470.838,13.28,0.048,64.5
2022-04-30T05:31:02,42.805,6.029,0.035,-0.004,0.043,98.0,106.0,101.0,13.4,1505.2,331.2,-0.8,1.8,2470.922,13.28,0.035,96.5
2022-04-30T05:34:02,42.805,6.029,0.041,-0.027,-0.02,102.0,103.0,100.0,13.4,1505.2,325.7,-0.7,1.8,2470.878,13.28,0.049,123.4
2022-04-30T05:37:02,42.805,6.029,0.075,0.006,0.04,103.0,103.0,99.0,13.4,1505.2,324.7,-0.8,1.8,2470.851,13.28,0.075,85.4
2022-04-30T05:40:03,42.805,6.029,0.035,0.006,-0.001,100.0,103.0,101.0,13.3,1505.2,322.6,-0.8,1.8,2470.889,13.28,0.035,80.3
2022-04-30T05:43:02,42.805,6.029,0.054,-0.025,-0.007,100.0,104.0,101.0,13.4,1505.2,332.8,-0.8,1.8,2470.892,13.28,0.059,114.8
2022-04-30T05:46:02,42.805,6.029,-0.001,0.007,0.005,101.0,104.0,100.0,13.4,1505.2,324.4,-0.8,1.8,2470.893,13.28,0.007,351.9
2022-04-30T05:49:02,42.805,6.029,0.003,0.01,-0.014,100.0,105.0,100.0,13.4,1505.2,323.2,-0.7,1.8,2470.817,13.28,0.01,16.7
2022-04-30T05:52:02,42.805,6.029,0.029,-0.011,0.01,101.0,104.0,99.0,13.4,1505.2,326.7,-0.7,1.8,2470.798,13.28,0.031,110.8
2022-04-30T05:55:02,42.805,6.029,0.038,0.001,0.002,101.0,104.0,100.0,13.4,1505.2,326.9,-0.8,1.8,2470.832,13.28,0.038,88.5
2022-04-30T05:58:02,42.805,6.029,0.037,-0.008,0.012,101.0,106.0,100.0,13.3,1505.2,324.5,-0.8,1.8,2470.784,13.28,0.037,102.2
2022-04-30T06:04:02,42.805,6.029,0.07,0.012,0.03,101.0,106.0,100.0,13.4,1505.2,329.6,-0.7,1.8,2470.831,13.28,0.071,80.3
2022-04-30T06:07:02,42.805,6.029,0.039,0.007,0.042,102.0,103.0,100.0,13.4,1505.2,327.4,-0.7,1.8,2470.822,13.28,0.039,79.8
2022-04-30T06:10:03,42.805,6.029,0.031,-0.014,-0.016,102.0,102.0,100.0,13.4,1505.2,322.8,-0.8,1.8,2470.836,13.28,0.034,114.3
2022-04-30T06:13:02,42.805,6.029,0.044,-0.02,0.036,101.0,104.0,100.0,13.3,1505.2,331.8,-0.8,1.8,2470.887,13.28,0.048,114.4
2022-04-30T06:16:02,42.805,6.029,0.037,-0.011,0.0,99.0,105.0,101.0,13.4,1505.2,326.3,-0.8,1.8,2470.85,13.28,0.038,106.6
2022-04-30T06:19:02,42.805,6.029,0.033,-0.011,-0.021,101.0,102.0,100.0,13.4,1505.2,323.8,-0.8,1.8,2470.834,13.28,0.034,108.4
2022-04-30T06:22:02,42.805,6.029,0.068,-0.012,0.019,102.0,104.0,100.0,13.4,1505.2,322.5,-0.7,1.8,2470.853,13.28,0.069,100.0
2022-04-30T06:25:02,42.805,6.029,0.042,0.012,0.008,102.0,102.0,100.0,13.4,1505.2,327.8,-0.7,1.8,2470.875,13.28,0.043,74.1
2022-04-30T06:28:02,42.805,6.029,0.045,0.009,0.042,101.0,104.0,99.0,13.4,1505.2,329.5,-0.7,1.8,2470.869,13.28,0.045,78.7
2022-04-30T06:31:03,42.805,6.029,0.061,-0.004,0.021,101.0,104.0,100.0,13.4,1505.2,322.0,-0.8,1.8,2470.849,13.28,0.061,93.7
2022-04-30T06:34:03,42.805,6.029,0.0,-0.013,-0.027,101.0,103.0,100.0,13.4,1505.2,328.9,-0.8,1.8,2470.889,13.28,0.013,180.0
2022-04-30T06:37:02,42.805,6.029,0.043,0.003,-0.009,100.0,103.0,100.0,13.4,1505.2,328.7,-0.8,1.8,2470.925,13.28,0.043,86.0
2022-04-30T06:40:02,42.805,6.029,0.045,-0.011,0.01,101.0,105.0,100.0,13.4,1505.2,326.4,-0.8,1.9,2470.912,13.28,0.046,103.7
2022-04-30T06:43:02,42.805,6.029,0.061,0.034,0.038,101.0,104.0,100.0,13.4,1505.2,325.4,-0.7,1.8,2470.916,13.28,0.069,60.9
2022-04-30T06:46:03,42.805,6.029,0.034,0.019,0.017,100.0,103.0,100.0,13.4,1505.2,326.1,-0.8,1.8,2470.901,13.28,0.038,60.8
2022-04-30T06:49:02,42.805,6.029,0.015,0.01,0.021,102.0,103.0,100.0,13.4,1505.2,328.3,-0.8,1.8,2470.889,13.28,0.018,56.3
2022-04-30T06:52:02,42.805,6.029,0.011,-0.005,-0.016,102.0,103.0,100.0,13.3,1505.2,321.8,-0.8,1.8,2470.855,13.28,0.012,114.4
2022-04-30T06:55:03,42.805,6.029,0.026,-0.013,-0.03,101.0,103.0,100.0,13.4,1505.2,332.6,-0.7,1.8,2470.877,13.28,0.029,116.6
2022-04-30T06:58:02,42.805,6.029,0.013,0.021,0.06,101.0,103.0,100.0,13.3,1505.2,326.5,-0.7,1.8,2470.887,13.28,0.024,31.8
2022-04-30T07:04:02,42.805,6.029,0.029,0.006,0.013,101.0,103.0,100.0,13.4,1505.2,322.8,-0.7,1.8,2470.901,13.28,0.029,78.3
2022-04-30T07:07:02,42.805,6.029,0.028,0.002,0.021,102.0,103.0,100.0,13.4,1505.2,321.8,-0.8,1.8,2470.901,13.28,0.028,85.9
2022-04-30T07:10:03,42.805,6.029,0.024,0.005,-0.004,101.0,102.0,100.0,13.4,1505.2,328.8,-0.7,1.8,2470.908,13.28,0.024,78.2
2022-04-30T07:13:03,42.805,6.029,0.032,0.011,0.008,100.0,105.0,100.0,13.4,1505.2,324.9,-0.8,1.8,2470.876,13.28,0.033,71.0
2022-04-30T07:16:03,42.805,6.029,0.043,0.009,0.017,101.0,103.0,100.0,13.3,1505.2,331.5,-0.8,1.8,2470.842,13.28,0.043,78.2
2022-04-30T07:19:02,42.805,6.029,0.039,0.006,0.008,101.0,104.0,101.0,13.3,1505.2,323.4,-0.7,1.8,2470.847,13.28,0.039,81.3
2022-04-30T07:22:03,42.805,6.029,0.031,-0.027,-0.027,101.0,103.0,100.0,13.4,1505.2,331.7,-0.8,1.8,2470.846,13.28,0.041,131.1
2022-04-30T07:25:02,42.805,6.029,0.049,0.024,0.043,100.0,103.0,100.0,13.4,1505.2,330.0,-0.8,1.8,2470.806,13.28,0.054,63.9
2022-04-30T07:28:02,42.805,6.029,0.033,0.0,0.015,101.0,102.0,100.0,13.4,1505.2,323.7,-0.7,1.8,2470.816,13.28,0.033,90.0
2022-04-30T07:31:02,42.805,6.029,0.028,0.017,0.024,103.0,103.0,100.0,13.4,1505.2,329.7,-0.7,1.8,2470.843,13.28,0.032,58.7
2022-04-30T07:34:03,42.805,6.029,0.047,-0.011,-0.022,100.0,103.0,100.0,13.3,1505.2,327.0,-0.8,1.8,2470.804,13.28,0.048,103.2
2022-04-30T07:37:02,42.805,6.029,0.048,0.0,0.011,101.0,104.0,100.0,13.4,1505.2,326.6,-0.7,1.8,2470.813,13.28,0.048,90.0
2022-04-30T07:40:02,42.805,6.029,0.018,-0.016,-0.004,100.0,104.0,100.0,13.4,1505.2,329.1,-0.8,1.8,2470.805,13.28,0.024,131.6
2022-04-30T07:43:02,42.805,6.029,0.007,0.023,0.033,101.0,104.0,100.0,13.3,1505.2,324.1,-0.8,1.8,2470.855,13.28,0.024,16.9
2022-04-30T07:46:03,42.805,6.029,0.033,0.006,0.016,101.0,103.0,100.0,13.4,1505.2,321.3,-0.8,1.8,2470.831,13.28,0.033,79.7
2022-04-30T07:49:02,42.805,6.029,0.033,0.011,0.03,101.0,103.0,100.0,13.4,1505.2,329.6,-0.7,1.8,2470.848,13.28,0.034,71.6
2022-04-30T07:52:02,42.805,6.029,0.04,-0.023,0.008,100.0,105.0,99.0,13.4,1505.2,330.9,-0.8,1.8,2470.855,13.28,0.046,119.9
2022-04-30T07:55:02,42.805,6.029,0.027,0.011,0.017,101.0,102.0,100.0,13.4,1505.2,323.2,-0.7,1.8,2470.847,13.28,0.029,67.8
2022-04-30T07:58:02,42.805,6.029,0.022,0.006,-0.002,101.0,104.0,100.0,13.4,1505.2,326.8,-0.7,1.8,2470.833,13.28,0.022,74.7
2022-04-30T08:04:02,42.805,6.029,0.068,-0.023,0.033,102.0,103.0,99.0,13.4,1505.2,332.1,-0.7,1.8,2470.88,13.28,0.071,108.7
2022-04-30T08:07:02,42.805,6.029,0.035,-0.02,-0.013,101.0,104.0,101.0,13.4,1505.2,331.1,-0.8,1.8,2470.876,13.28,0.04,119.7
2022-04-30T08:10:02,42.805,6.029,0.032,-0.011,-0.001,100.0,103.0,100.0,13.4,1505.2,323.6,-0.8,1.8,2470.845,13.28,0.033,109.0
2022-04-30T08:13:03,42.805,6.029,0.003,-0.009,-0.005,101.0,102.0,100.0,13.3,1505.2,325.1,-0.7,1.8,2470.902,13.28,0.009,161.6
2022-04-30T08:16:02,42.805,6.029,0.004,0.015,-0.003,100.0,104.0,100.0,13.3,1505.2,325.4,-0.8,1.9,2470.854,13.28,0.015,14.9
2022-04-30T08:19:02,42.805,6.029,0.035,-0.009,0.036,100.0,103.0,99.0,13.4,1505.2,330.5,-0.7,1.8,2470.838,13.28,0.036,104.4
2022-04-30T08:22:02,42.805,6.029,0.02,0.033,0.003,100.0,102.0,101.0,13.4,1505.2,324.5,-0.8,1.8,2470.854,13.28,0.038,31.2
2022-04-30T08:25:03,42.805,6.029,0.054,-0.011,-0.041,101.0,103.0,100.0,13.3,1505.2,326.4,-0.8,1.8,2470.85,13.28,0.055,101.5
2022-04-30T08:28:03,42.805,6.029,0.035,-0.004,0.051,101.0,103.0,100.0,13.4,1505.2,331.5,-0.8,1.8,2470.87,13.28,0.035,96.5
2022-04-30T08:31:02,42.805,6.029,0.023,0.002,0.003,100.0,103.0,100.0,13.4,1505.2,323.2,-0.7,1.9,2470.842,13.28,0.023,85.0
2022-04-30T08:34:03,42.805,6.029,0.011,0.014,0.006,100.0,102.0,101.0,13.4,1505.2,324.6,-0.8,1.8,2470.833,13.28,0.017,38.2
2022-04-30T08:37:02,42.805,6.029,0.009,0.003,-0.005,100.0,104.0,100.0,13.4,1505.2,324.4,-0.8,1.8,2470.792,13.28,0.009,71.6
2022-04-30T08:40:02,42.805,6.029,0.017,0.001,-0.005,101.0,102.0,100.0,13.3,1505.2,329.2,-0.8,1.8,2470.809,13.28,0.017,86.6
2022-04-30T08:43:02,42.805,6.029,0.017,-0.01,-0.026,101.0,103.0,99.0,13.3,1505.2,324.0,-0.8,1.8,2470.829,13.28,0.019,120.5
2022-04-30T08:46:03,42.805,6.029,0.05,-0.034,-0.024,100.0,103.0,100.0,13.4,1505.2,327.5,-0.8,1.8,2470.807,13.28,0.06,124.2
2022-04-30T08:49:03,42.805,6.029,0.045,-0.017,0.005,101.0,103.0,100.0,13.4,1505.2,329.5,-0.7,1.8,2470.824,13.28,0.048,110.7
2022-04-30T08:52:02,42.805,6.029,0.039,0.0,0.011,101.0,103.0,99.0,13.4,1505.2,324.4,-0.7,1.8,2470.818,13.28,0.039,90.0
2022-04-30T08:55:02,42.805,6.029,0.012,-0.005,-0.018,101.0,104.0,100.0,13.3,1505.2,325.4,-0.8,1.8,2470.837,13.28,0.013,112.6
2022-04-30T08:58:02,42.805,6.029,0.027,0.004,-0.007,101.0,103.0,100.0,13.4,1505.2,328.8,-0.8,1.8,2470.795,13.28,0.027,81.6
2022-04-30T09:04:02,42.805,6.029,0.02,-0.008,-0.025,101.0,103.0,100.0,13.3,1505.2,332.0,-0.8,1.8,2470.833,13.28,0.021,111.8
2022-04-30T09:07:02,42.805,6.029,0.034,0.011,0.009,101.0,102.0,100.0,13.4,1505.2,321.5,-0.7,1.8,2470.791,13.28,0.035,72.1
2022-04-30T09:10:03,42.805,6.029,0.02,0.013,0.004,101.0,103.0,100.0,13.3,1505.2,324.6,-0.7,1.8,2470.791,13.28,0.023,57.0
2022-04-30T09:13:03,42.805,6.029,0.043,-0.002,-0.008,102.0,103.0,100.0,13.3,1505.2,324.7,-0.8,1.8,2470.736,13.28,0.043,92.7
2022-04-30T09:16:03,42.805,6.029,0.023,-0.004,0.013,101.0,102.0,100.0,13.4,1505.2,324.3,-0.7,1.8,2470.749,13.28,0.023,99.9
2022-04-30T09:19:03,42.805,6.029,0.037,0.007,0.011,101.0,103.0,100.0,13.3,1505.2,329.5,-0.7,1.8,2470.782,13.28,0.037,79.3
2022-04-30T09:22:03,42.805,6.029,0.021,0.023,0.024,100.0,104.0,100.0,13.3,1505.2,322.9,-0.8,1.8,2470.708,13.28,0.031,42.4
2022-04-30T09:25:02,42.805,6.029,0.007,0.0,-0.022,100.0,102.0,100.0,13.3,1505.2,330.3,-0.8,1.8,2470.7,13.28,0.007,90.0
2022-04-30T09:28:02,42.805,6.029,0.028,-0.032,-0.04,100.0,102.0,100.0,13.3,1505.2,326.3,-0.7,1.8,2470.71,13.28,0.042,138.8
2022-04-30T09:31:02,42.805,6.029,0.036,-0.003,-0.02,102.0,103.0,99.0,13.4,1505.2,325.2,-0.8,1.8,2470.704,13.28,0.036,94.8
2022-04-30T09:34:03,42.805,6.029,0.027,0.033,0.017,103.0,103.0,99.0,13.4,1505.2,324.9,-0.8,1.8,2470.683,13.28,0.042,39.3
2022-04-30T09:37:02,42.805,6.029,0.049,-0.008,0.022,100.0,103.0,100.0,13.3,1505.2,324.7,-0.8,1.8,2470.718,13.28,0.049,99.3
2022-04-30T09:40:03,42.805,6.029,0.04,-0.008,-0.009,102.0,102.0,100.0,13.4,1505.2,330.3,-0.7,1.8,2470.688,13.28,0.04,101.3
2022-04-30T09:43:03,42.805,6.029,0.017,-0.004,0.006,100.0,103.0,100.0,13.4,1505.2,332.4,-0.8,1.8,2470.662,13.28,0.017,103.2
2022-04-30T09:46:03,42.805,6.029,0.009,0.001,0.008,101.0,103.0,99.0,13.3,1505.2,332.0,-0.8,1.8,2470.649,13.28,0.009,83.7
2022-04-30T09:49:03,42.805,6.029,0.054,-0.003,0.034,101.0,103.0,101.0,13.3,1505.2,331.5,-0.8,1.9,2470.648,13.28,0.054,93.2
2022-04-30T09:52:02,42.805,6.029,0.027,-0.009,-0.009,101.0,103.0,100.0,13.4,1505.2,330.8,-0.8,1.8,2470.648,13.28,0.028,108.4
2022-04-30T09:55:03,42.805,6.029,0.031,-0.01,-0.014,101.0,103.0,101.0,13.3,1505.2,325.9,-0.7,1.8,2470.656,13.28,0.032,107.9
2022-04-30T09:58:02,42.805,6.029,0.031,0.01,0.0,102.0,103.0,100.0,13.3,1505.2,327.0,-0.8,1.8,2470.701,13.28,0.032,72.1
2022-04-30T10:04:02,42.805,6.029,0.02,-0.033,-0.039,101.0,102.0,100.0,13.3,1505.2,331.9,-0.8,1.8,2470.753,13.28,0.038,148.8
2022-04-30T10:07:02,42.805,6.029,0.044,0.0,0.019,101.0,104.0,99.0,13.4,1505.2,323.0,-0.7,1.8,2470.701,13.28,0.044,90.0